Wind_Speed
13 13 12 12 12 11 11 10 10 10 9 9 8 8 8 7 7 7 7 6 6 6 6 6 6 7 8 8 8 9 9 9 10 10 11 11 12 12 13 14 14 15 15
14 14 14 13 13 12 11 11 11 10 10 10 9 9 8 8 8 8 7 7 7 7 6 7 7 8 8 8 9 9 9 9 10 10 11 11 12 13 13 14 14 15 15
15 15 15 14 14 14 13 12 12 12 11 11 10 10 10 9 9 8 8 8 7 7 7 8 8 9 9 9 9 9 10 10 11 11 11 12 12 13 13 14 14 15 15
17 16 16 15 15 15 14 14 13 13 12 12 11 11 11 10 9 9 9 8 8 8 8 9 9 10 10 10 10 10 11 11 12 12 12 13 13 13 14 14 15 16 16
18 17 17 16 16 16 16 15 15 14 14 13 12 12 12 11 11 10 10 9 9 9 10 10 10 10 11 11 11 11 12 12 12 13 13 14 14 14 15 15 16 16 17
19 18 18 17 17 17 17 17 16 15 15 14 14 13 13 12 12 11 11 11 10 10 11 11 11 11 11 12 12 12 12 13 13 14 14 14 15 15 16 16 17 17 18
20 20 19 19 18 18 18 18 18 17 16 16 15 15 14 14 13 13 13 12 12 12 12 12 12 12 12 13 13 13 13 13 14 14 14 15 16 16 17 17 18 18 18
22 21 21 21 20 20 20 20 20 19 18 17 17 16 16 15 15 14 14 14 14 14 13 13 13 14 14 14 14 14 14 14 15 15 16 16 17 17 17 18 18 19 19
24 23 22 22 22 21 22 22 21 21 20 19 18 18 17 17 16 16 16 16 16 16 15 15 15 15 15 15 15 15 15 15 15 16 17 17 17 18 18 19 19 20 20
26 25 24 24 23 23 23 23 23 22 21 21 20 19 19 18 18 18 17 17 17 17 17 17 17 17 17 16 16 16 17 16 17 17 17 18 18 18 19 20 20 21 21
28 27 26 26 25 25 25 25 24 23 22 22 21 21 20 20 19 19 19 19 19 19 19 18 18 18 18 18 18 18 18 18 18 18 18 19 19 19 20 21 21 22 22
29 29 29 28 27 27 27 27 26 25 24 24 23 22 22 22 21 21 21 21 21 21 20 20 20 20 20 19 19 19 19 19 19 19 20 20 21 21 22 22 23 23 23
31 31 31 30 29 29 29 29 28 27 26 26 25 24 24 24 24 23 23 23 23 22 22 22 22 21 21 21 21 21 21 21 21 21 21 22 22 22 23 24 24 24 25
34 33 33 32 32 31 31 31 29 28 27 27 27 26 26 26 25 25 24 24 24 24 23 23 23 23 23 23 23 22 22 22 22 23 23 23 24 24 24 25 25 26 26
36 35 35 34 34 33 33 32 31 30 29 29 28 28 28 27 27 26 26 26 25 25 25 25 25 25 25 25 24 24 24 24 24 24 25 25 25 26 26 26 27 27 28
38 37 37 37 36 35 35 34 32 31 31 30 30 30 30 29 29 28 28 28 27 27 27 27 27 27 27 27 26 26 26 26 26 26 26 27 27 28 28 28 28 28 29
39 39 39 38 38 37 36 36 34 34 33 32 32 32 32 31 31 30 30 30 29 29 29 29 30 29 29 28 28 28 28 28 28 28 28 29 29 29 29 29 29 30 30
40 41 40 40 39 39 38 37 36 36 36 35 34 34 33 33 33 32 32 31 31 31 31 31 31 31 31 30 30 30 30 30 30 30 30 30 30 30 31 31 31 31 31
41 41 41 41 41 40 40 40 38 38 37 37 36 35 35 35 35 34 33 33 33 33 33 33 33 33 33 32 32 32 31 31 32 32 32 32 32 32 32 32 32 32 33
42 42 42 42 42 42 42 41 41 40 39 38 38 38 37 37 37 36 35 35 35 35 35 35 35 35 34 34 34 33 33 33 33 33 34 34 34 34 34 34 34 34 34
43 43 43 43 43 44 44 43 43 42 41 41 40 39 38 38 38 38 37 37 37 37 37 37 37 36 35 35 35 35 35 35 35 35 35 35 36 36 36 36 35 35 35
45 44 45 45 44 44 44 45 45 45 44 43 43 42 40 40 40 40 40 40 39 39 39 38 38 38 37 37 37 37 37 36 36 36 36 37 37 37 37 37 37 37 37
45 45 45 45 45 45 45 46 47 46 45 44 43 42 42 42 42 42 42 42 41 41 40 40 39 39 39 39 39 39 39 38 38 38 38 38 38 38 38 38 38 38 38
45 45 45 46 46 47 47 47 47 47 46 45 44 44 44 44 44 44 44 43 42 42 42 41 41 40 40 40 40 40 40 40 40 39 39 39 39 39 39 39 39 39 40
44 45 45 45 46 47 47 47 47 47 47 46 46 45 45 45 45 45 45 45 44 43 43 43 42 41 41 41 41 41 42 42 41 41 40 39 40 40 40 40 41 41 41
43 44 44 45 46 46 47 47 47 47 48 48 47 46 46 46 47 46 46 46 45 45 44 44 44 43 43 43 43 43 43 43 43 42 42 41 41 41 41 41 41 42 42
Wind_Direction
254 257 260 263 263 263 263 261 257 254 253 255 257 257 260 262 260 258 258 262 268 274 278 283 289 295 300 305 308 310 314 317 319 321 322 323 323 322 322 323 323 322 322
254 255 258 260 260 260 260 259 257 255 253 253 255 256 259 260 257 256 258 262 266 271 275 282 288 293 297 302 306 309 311 314 316 319 320 322 323 323 323 323 323 323 323
252 253 255 257 257 257 257 256 256 255 253 252 253 256 258 259 258 256 257 261 265 270 276 280 284 288 293 297 301 304 307 311 314 317 318 318 318 319 321 321 321 320 320
251 252 253 254 255 255 254 253 254 255 255 254 255 258 258 260 259 257 257 260 263 269 275 280 282 285 290 293 296 300 304 307 310 313 314 314 314 316 316 317 318 318 317
250 251 252 253 253 253 252 251 252 254 256 256 258 260 261 261 258 256 257 259 263 270 276 280 283 286 289 292 295 299 302 304 307 309 311 312 313 314 314 314 314 315 315
249 250 251 252 253 253 251 251 252 254 256 257 258 260 261 261 259 257 256 259 265 271 276 279 283 288 290 292 294 296 299 301 303 306 309 310 311 312 313 313 312 313 312
250 249 249 249 251 252 251 251 253 255 256 257 258 259 261 262 260 258 258 260 265 270 274 277 281 286 289 291 293 294 297 299 301 304 307 308 309 310 311 311 311 311 311
250 249 249 249 250 250 250 251 253 254 255 256 256 257 260 262 261 260 259 262 266 270 272 276 279 284 287 289 290 292 294 298 300 302 305 306 306 309 310 310 310 309 309
250 250 250 250 251 251 250 251 252 253 254 254 255 256 259 261 261 261 260 263 267 270 272 275 278 282 285 286 288 291 293 296 298 300 302 303 304 307 308 310 309 308 308
251 250 249 250 250 250 251 251 253 254 254 254 254 255 258 260 261 262 262 264 267 270 271 274 278 281 283 285 287 290 292 294 297 299 300 301 303 304 306 308 308 308 307
252 251 250 249 250 250 251 252 252 253 253 253 254 254 256 258 259 262 264 266 268 270 270 273 277 280 282 284 286 288 290 292 294 297 299 300 301 302 303 304 305 306 306
252 252 252 252 251 250 250 251 253 252 252 253 254 254 256 257 259 261 264 266 268 269 270 273 276 279 281 284 286 287 288 289 292 294 297 298 299 301 302 302 302 303 304
253 253 253 253 253 252 251 251 253 252 252 253 254 255 256 258 259 261 264 266 268 268 269 272 275 278 280 282 284 285 287 288 290 293 295 296 297 298 300 301 301 301 302
253 254 255 254 254 253 252 252 253 252 252 253 254 255 256 258 260 262 264 266 268 269 269 271 274 276 279 281 283 285 286 288 289 292 294 295 296 297 298 299 300 300 300
254 255 255 255 254 253 252 252 253 252 252 253 254 255 256 258 260 262 263 265 268 269 269 270 272 276 278 280 282 283 285 286 288 290 292 294 295 296 297 298 299 299 300
254 255 255 255 254 253 253 253 253 253 253 253 254 255 257 259 260 263 264 265 267 269 269 271 273 275 278 279 281 283 284 285 286 288 290 292 293 295 296 296 297 298 299
253 254 254 254 254 254 253 254 253 253 253 254 255 255 258 259 261 262 264 265 267 269 270 272 274 276 278 279 281 282 283 284 285 287 289 291 292 294 294 295 296 297 298
253 253 253 253 254 253 253 253 253 253 253 253 254 256 257 259 261 262 264 265 267 268 270 273 274 276 277 278 280 281 282 284 285 286 288 290 291 292 293 294 295 296 297
253 252 252 252 253 253 252 252 252 252 253 254 254 256 258 259 261 263 264 266 267 268 270 273 274 275 276 277 278 280 281 283 284 285 287 289 291 291 292 294 295 296 296
253 252 252 252 253 254 253 252 252 253 253 254 254 256 258 259 261 263 264 266 267 268 270 272 274 275 275 276 277 279 280 282 283 285 287 289 290 291 292 293 294 295 295
254 253 253 254 253 254 253 253 252 252 252 253 253 256 258 259 260 262 263 265 266 268 269 271 273 274 274 275 276 277 279 281 282 284 286 288 289 290 291 292 293 295 295
255 253 253 253 253 253 253 252 251 251 252 253 254 256 258 260 261 261 262 264 266 267 269 270 272 273 273 274 275 276 278 279 281 282 284 287 288 288 290 291 292 293 294
256 255 254 254 253 253 253 252 251 251 252 253 254 257 258 259 261 262 263 264 265 267 268 269 271 272 273 273 274 276 278 279 279 281 283 285 286 287 289 290 291 292 293
256 256 255 254 253 253 253 252 252 252 252 253 254 257 257 259 261 263 263 264 266 267 268 269 271 271 272 274 274 276 277 278 279 280 282 283 284 286 288 289 290 291 292
256 255 254 254 253 252 252 252 252 251 252 252 254 256 258 259 261 263 264 264 264 266 267 269 270 271 273 273 274 275 276 278 279 280 281 282 283 284 286 287 289 290 291
256 255 255 254 253 252 252 252 252 251 251 252 255 257 258 259 260 261 263 264 264 265 266 268 269 270 271 273 274 275 276 277 279 280 281 282 282 284 285 286 288 289 290
Height
5857 5858 5858 5859 5859 5859 5860 5860 5861 5861 5861 5861 5861 5861 5861 5862 5862 5862 5862 5862 5862 5862 5862 5862 5862 5861 5861 5860 5859 5859 5858 5857 5856 5855 5855 5854 5853 5852 5850 5849 5848 5847 5846
5855 5856 5856 5857 5857 5857 5858 5858 5859 5859 5859 5860 5860 5860 5860 5860 5861 5861 5861 5861 5861 5861 5861 5861 5860 5860 5859 5859 5858 5857 5857 5856 5855 5854 5853 5852 5851 5850 5849 5848 5846 5845 5844
5852 5853 5854 5854 5855 5855 5856 5856 5857 5857 5858 5858 5858 5858 5859 5859 5859 5859 5859 5859 5859 5859 5859 5859 5859 5858 5858 5857 5856 5856 5855 5854 5853 5852 5851 5850 5849 5848 5846 5845 5844 5843 5841
5849 5850 5851 5852 5852 5853 5853 5854 5855 5855 5856 5856 5856 5857 5857 5857 5857 5858 5858 5858 5858 5858 5858 5857 5857 5857 5856 5855 5855 5854 5853 5852 5851 5851 5849 5848 5847 5846 5844 5843 5842 5840 5839
5846 5847 5848 5849 5850 5850 5851 5852 5852 5853 5853 5854 5854 5855 5855 5855 5855 5856 5856 5856 5856 5856 5856 5856 5855 5855 5854 5854 5853 5852 5851 5850 5849 5848 5847 5846 5845 5844 5842 5841 5839 5838 5836
5842 5844 5844 5845 5846 5847 5848 5849 5849 5850 5851 5851 5852 5852 5852 5853 5853 5853 5854 5854 5854 5854 5854 5854 5853 5853 5852 5851 5851 5850 5849 5848 5847 5846 5845 5844 5843 5841 5840 5838 5837 5835 5833
5838 5840 5841 5842 5843 5844 5845 5845 5846 5847 5848 5848 5849 5849 5850 5850 5851 5851 5851 5851 5852 5852 5851 5851 5851 5850 5850 5849 5848 5847 5846 5846 5845 5844 5842 5841 5840 5838 5837 5835 5834 5832 5830
5834 5836 5837 5838 5839 5840 5841 5842 5843 5844 5844 5845 5846 5846 5847 5847 5848 5848 5848 5849 5849 5849 5849 5848 5848 5847 5847 5846 5845 5845 5844 5843 5842 5841 5840 5838 5837 5835 5834 5832 5831 5829 5827
5829 5831 5832 5833 5834 5836 5837 5838 5839 5839 5840 5841 5842 5843 5843 5844 5844 5845 5845 5845 5846 5846 5845 5845 5845 5845 5844 5843 5842 5842 5841 5840 5839 5838 5837 5835 5834 5832 5831 5829 5827 5825 5824
5824 5826 5827 5828 5830 5831 5832 5833 5834 5835 5836 5837 5838 5839 5840 5840 5841 5841 5841 5842 5842 5842 5842 5842 5842 5841 5841 5840 5839 5838 5838 5837 5836 5834 5833 5832 5830 5829 5827 5825 5823 5822 5820
5819 5820 5822 5823 5824 5826 5827 5828 5829 5830 5832 5833 5834 5835 5835 5836 5836 5837 5838 5838 5838 5838 5838 5838 5838 5838 5837 5836 5836 5835 5834 5833 5832 5831 5829 5828 5826 5825 5823 5821 5819 5818 5816
5813 5814 5816 5817 5819 5820 5821 5823 5824 5825 5827 5828 5829 5830 5831 5831 5832 5833 5833 5834 5834 5834 5834 5834 5834 5834 5833 5832 5832 5831 5830 5829 5828 5827 5825 5824 5822 5821 5819 5817 5815 5813 5811
5806 5808 5809 5811 5812 5814 5815 5817 5818 5820 5821 5822 5824 5825 5826 5827 5827 5828 5829 5829 5829 5829 5829 5829 5829 5829 5829 5828 5827 5827 5826 5825 5824 5823 5821 5820 5818 5816 5814 5813 5811 5809 5806
5799 5800 5802 5804 5805 5807 5808 5810 5812 5814 5815 5817 5818 5819 5820 5821 5822 5823 5824 5824 5824 5824 5824 5825 5825 5824 5824 5823 5823 5822 5821 5820 5819 5818 5816 5815 5813 5811 5810 5808 5806 5804 5802
5791 5793 5794 5796 5798 5799 5801 5803 5805 5807 5809 5810 5812 5813 5814 5816 5817 5817 5818 5819 5819 5819 5819 5819 5819 5819 5819 5818 5817 5817 5816 5815 5814 5813 5811 5810 5808 5806 5804 5802 5800 5798 5796
5783 5784 5786 5788 5790 5792 5794 5796 5798 5800 5802 5804 5805 5807 5808 5809 5810 5811 5812 5813 5813 5813 5814 5814 5813 5813 5813 5812 5812 5811 5810 5809 5808 5807 5806 5804 5802 5801 5799 5797 5794 5792 5790
5774 5775 5777 5779 5781 5783 5786 5788 5791 5793 5795 5796 5798 5800 5801 5803 5804 5805 5805 5806 5807 5807 5807 5807 5807 5807 5807 5806 5806 5805 5804 5803 5802 5801 5800 5798 5796 5794 5792 5790 5788 5786 5784
5764 5766 5768 5770 5772 5775 5777 5780 5783 5785 5787 5789 5791 5792 5794 5795 5797 5797 5798 5799 5800 5800 5800 5800 5800 5800 5800 5799 5799 5798 5797 5797 5796 5794 5793 5791 5790 5788 5786 5784 5782 5779 5777
5754 5756 5758 5761 5763 5766 5769 5771 5774 5777 5779 5781 5783 5784 5785 5787 5789 5790 5791 5791 5792 5793 5793 5793 5793 5793 5792 5792 5792 5791 5790 5789 5788 5787 5786 5784 5783 5781 5779 5777 5775 5772 5770
5745 5747 5749 5752 5754 5756 5759 5762 5765 5768 5771 5773 5774 5776 5778 5779 5780 5782 5783 5784 5784 5785 5785 5785 5785 5785 5785 5784 5784 5783 5783 5782 5781 5780 5778 5777 5775 5774 5772 5770 5768 5765 5763
5735 5737 5740 5742 5745 5747 5749 5753 5756 5759 5761 5764 5766 5767 5769 5770 5771 5773 5774 5775 5776 5776 5777 5777 5777 5777 5776 5776 5776 5775 5775 5774 5773 5772 5771 5769 5768 5766 5764 5762 5760 5757 5755
5724 5727 5729 5732 5735 5737 5740 5743 5746 5749 5751 5754 5756 5758 5760 5761 5763 5764 5765 5766 5767 5767 5768 5768 5768 5768 5768 5767 5767 5766 5766 5767 5765 5764 5762 5761 5759 5757 5755 5753 5751 5749 5746
5713 5716 5719 5721 5724 5727 5730 5732 5735 5738 5741 5745 5747 5749 5750 5751 5753 5754 5755 5756 5757 5758 5759 5759 5759 5759 5759 5759 5758 5758 5757 5757 5756 5755 5754 5752 5750 5749 5747 5744 5742 5740 5737
5702 5705 5708 5710 5713 5716 5719 5721 5724 5728 5731 5735 5737 5739 5740 5741 5743 5744 5745 5747 5748 5748 5749 5749 5749 5749 5749 5749 5749 5748 5748 5747 5747 5746 5745 5743 5741 5739 5737 5735 5733 5730 5728
5691 5694 5696 5699 5702 5705 5707 5710 5713 5717 5721 5724 5726 5728 5729 5731 5733 5734 5735 5736 5738 5738 5739 5739 5739 5739 5740 5739 5739 5738 5737 5736 5736 5735 5735 5734 5732 5730 5728 5726 5723 5721 5718
5680 5683 5685 5687 5691 5693 5696 5699 5702 5705 5709 5711 5714 5716 5718 5720 5722 5723 5724 5725 5726 5728 5728 5729 5728 5729 5729 5729 5729 5728 5727 5726 5726 5724 5724 5723 5722 5720 5718 5716 5713 5711 5708